Regional Weather Roundup
Issued by NWS Charleston, SC

Current Version | Previous Version | Graphics & Text | Print | Product List | Glossary On
Versions: 1 2 3 4 5 6 7 8 9 10 11 12 13 14 15 16 17 18 19 20 21 22 23 24 25 26 27 28 29 30 31 32 33 34 35 36 37 38 39 40 41 42 43 44 45 46 47 48 49 50
000 ASUS42 KCHS 050513 RWRCHS REGIONAL WEATHER ROUNDUP NATIONAL WEATHER SERVICE CHARLESTON SC 100 AM EDT THU MAY 05 2016 NOTE: "FAIR" INDICATES FEW OR NO CLOUDS BELOW 12,000 FEET WITH NO SIGNIFICANT WEATHER AND/OR OBSTRUCTIONS TO VISIBILITY. NOT ALL STATIONS ARE QUALITY CONTROLLED. USE DATA WITH CAUTION... ESPECIALLY DEWPOINT OBSERVATIONS. SCZ027-030-031-034>040-042>050-050600- ...SOUTHEAST SOUTH CAROLINA... CITY SKY/WX TMP DP RH WIND PRES REMARKS N CHARLESTON CLEAR 63 48 58 NW7 29.64S WATERFRONT PRK N/A 66 51 58 VRB3 29.62F MOUNT PLEASANT FAIR 63 48 59 CALM 29.64R JOHNS ISLAND FAIR 61 50 67 W6 29.64S PINOPOLIS N/A 68 54 60 W8 29.55F MONCKS CORNER FAIR 55 45 67 CALM 29.64S SUMMERVILLE FAIR 57 50 77 W3 29.65F BEAUFORT MCAS CLEAR 64 48 56 W5 29.65F BEAUFORT ARPT FAIR 64 46 52 NW7 29.65S HILTON HEAD IS CLEAR 66 48 52 NW5 29.67S WALTERBORO CLEAR 59 50 72 W5 29.66F ALLENDALE FAIR 57 50 77 CALM 29.66F ...SOUTHERN MIDLANDS AND PEE DEE... CITY SKY/WX TMP DP RH WIND PRES REMARKS GEORGETOWN FAIR 61 45 55 NW3 29.64R KINGSTREE FAIR 55 50 82 CALM 29.63F ORANGEBURG CLEAR 57 51 80 CALM 29.65F BARNWELL FAIR 57 52 82 CALM 29.67F AIKEN FAIR 55 45 67 W5 29.70S MANNING FAIR 52 48 87 CALM 29.64S COLUMBIA CLEAR 57 48 72 SW3 29.63F SUMTER CLEAR 59 47 63 W5 29.61F FLORENCE CLEAR 65 46 50 W7 29.62F MYRTLE BEACH CLOUDY 64 48 55 W7 29.65R N MYRTLE BEACH MOCLDY 64 52 64 W3 29.61R $$ GAZ063-065-086>088-099>101-113>116-118-119-134>141-150-050600- ...SOUTHEAST GEORGIA... CITY SKY/WX TMP DP RH WIND PRES REMARKS SAVANNAH ARPT CLEAR 60 50 69 W6 29.67F HUNTER AAF CLEAR 60 51 72 W7 29.65S FORT STEWART CLEAR 61 48 64 MISG 29.66F STATESBORO CLEAR 59 56 89 CALM 29.68F SYLVANIA CLEAR 57 55 91 CALM 29.68F CLAXTON FAIR 56 55 95 SW5 29.69F ...CSRA...CENTRAL AND FAR SOUTHEAST GEORGIA... CITY SKY/WX TMP DP RH WIND PRES REMARKS THOMSON PTCLDY 61 52 73 W6 29.73F AUGUSTA-BUSH CLEAR 62 47 57 NW15G24 29.67S AUGUSTA-DANIEL CLEAR 63 45 51 NW9G20 29.68S SWAINSBORO FAIR 57 48 72 NW7 29.70S VIDALIA CLEAR 61 48 63 W7 29.70F EASTMAN FAIR 61 49 64 CALM 29.74F HAZLEHURST FAIR 59 51 74 CALM 29.71S ALMA CLEAR 60 50 69 W5 29.71F WAYCROSS CLEAR 60 51 72 W6 29.71F JESUP FAIR 63 54 72 NW7 29.70S BAXLEY FAIR 61 50 67 W5 29.70F BRUNSWICK CLEAR 68 54 60 W5 29.69S SAINT SIMONS CLEAR 65 49 56 NW6 29.68S $$ SCZ027-028-034-036>038-045-046-048>050-GAZ119-141-050600- ...LAKE AND SUPPLEMENTAL COASTAL OBSERVATIONS... STATION/POSITION TIME TEMP WIND PRES WAVE SWELL AIR SEA DIR/SP/G HT/PER HT/PER/DIR (UTC) (F) (DEG/KT/KT) (MB) (FT/S) (FT/S/D) WINYAH BAY NOT AVBL LAKE MURRAY 0400 65 270/ 11/ 13 1003.7F ACE BASIN NERRS NOT AVBL FORT PULASKI 0400 67 75 300/ 14/ 17 1004.7F SAPELO ISLAND 0400 65 310/ 9 1005.0S $$ ANZ835-935-AMZ111-154-330-350-352-354-370-450-454-472-050600- ...C-MAN AND BUOY OBSERVATIONS... STATION/POSITION TIME TEMP WIND PRES WAVE SWELL AIR SEA DIR/SP/G HT/PER HT/PER/DIR (UTC) (F) (DEG/KT/KT) (MB) (FT/S) (FT/S/D) BUOY 41004 0450 72 74 320/ 19/ 23 1002.4R 3/ 4 2/ 7 BUOY 41008 NOT AVBL FOLLY BEACH CMAN 0400 65 300/ 6/ 10 1003.5F CAPERS NEARSHORE 0408 68 71 320/ 16/ 19 1002.6F FRIPP NEARSHORE 0408 69 71 320/ 17/ 21 1003.2F STATION/POSITION TIME TEMP WIND PRES WAVE SWELL AIR SEA DIR/SP/G HT/PER HT/PER/DIR (UTC) (F) (DEG/KT/KT) (MB) (FT/S) (FT/S/D) 5E ST. MARYS GA 0421 72 N/A 3/ 7 FRYING PAN BUOY 0400 71 71 280/ 12/ 14 1001.3F BUOY 41025 0450 62 70 20/ 17/ 21 1002.3R 4/ 8 2/160/ 8 CAPE LOOKOUT NC 0400 65 30/ 14/ 16 1001.5F BUOY 41002 0450 73 73 200/ 17/ 21 1004.2R 6/ 7 2/ 80/ 9 BUOY 41010 0420 73 79 200/ 14/ 17 1002.5 ST AUGUSTINE FL 0500 64 71 320/ 7/ 9 1005.8R $$

USA.gov is the U.S. government's official web portal to all federal, state and local government web resources and services.